Lid_Strength_Index
-1 0 2 6 10 11 14 13 11 10 10 8 6 7 9 8 10 12 2 1 -0 -0 -1 -1 -1 -1 -1 -2 -2 -2 -2 -2 -2 -2 -2 -2 -2 -2 -2 -2 -2 -2 -2 -2 -2 -2 -2 -2 -2
1 1 5 8 12 15 14 11 11 9 7 6 6 7 8 10 5 4 3 0 -0 -0 -0 -0 -1 -1 -2 -2 -2 -2 -2 -2 -2 -2 -2 -2 -2 -2 -2 -2 -2 -2 -2 -2 -2 -2 -2 -2 -2
2 2 7 10 14 15 14 11 10 8 7 8 8 6 7 8 5 3 2 0 -0 -0 -0 -0 -1 -1 -2 -2 -2 -2 -2 -2 -2 -2 -2 -2 -2 -2 -2 -2 -2 -2 -2 -2 -2 -2 -2 -2 -2
4 5 7 11 14 13 11 9 8 8 8 7 7 9 6 4 3 2 1 0 0 -0 -0 -0 -1 -1 -2 -2 -2 -2 -2 -2 -2 -2 -2 -2 -2 -2 -2 -2 -2 -2 -2 -2 -2 -2 -2 -2 -2
4 7 11 13 12 12 11 8 7 8 8 8 7 10 8 4 2 2 1 0 1 0 -0 -0 -1 -1 -2 -2 -2 -2 -2 -2 -2 -2 -2 -3 -2 -2 -2 -2 -2 -2 -2 -2 -2 -2 -2 -1 -2
7 8 13 15 12 9 10 8 8 8 8 8 7 8 7 3 3 3 1 1 0 0 -0 -0 1 -0 -1 -1 -2 -2 -2 -2 -2 -2 -2 -3 -2 -2 -2 -2 -2 -2 -2 -2 -2 -2 -1 -1 -1
9 10 13 13 12 10 9 8 9 9 8 9 7 9 8 5 3 2 3 1 1 -0 -0 0 -0 0 0 -0 -1 -1 -2 -2 -2 -2 -2 -2 -2 -2 -2 -2 -2 -2 -2 -2 -1 -1 -1 -1 -1
7 9 13 13 12 12 9 8 8 9 8 6 5 9 9 4 2 2 3 2 1 0 -0 0 0 0 -0 -0 1 -0 -1 -1 -2 -2 -1 -1 -1 -1 -1 -1 -2 -2 -2 -2 -1 -1 -1 -1 -1
6 11 13 12 11 10 9 9 8 7 7 6 5 6 4 3 3 3 4 4 2 1 0 0 0 0 0 0 1 1 0 -0 -1 -0 0 1 0 -0 -0 -0 -1 -2 -2 -2 -1 -1 -1 -2 -1
8 12 11 8 9 10 8 9 8 9 9 8 7 4 3 3 4 4 4 4 4 3 2 0 0 0 0 -1 0 0 0 0 0 0 0 0 1 0 -0 1 0 -1 -1 -1 -1 -1 -2 -0 2
8 12 9 8 8 7 8 8 7 10 10 8 7 6 4 5 4 4 4 4 4 4 2 1 0 0 -0 -0 0 0 1 1 1 0 0 0 0 2 1 1 1 1 1 1 0 0 1 2 2
10 8 8 7 6 7 8 7 8 9 10 7 6 4 4 5 4 4 4 3 4 4 3 1 1 -0 -0 -0 0 0 0 0 1 1 0 1 2 2 2 2 2 2 1 2 2 2 2 2 1
9 8 7 6 6 7 6 8 8 8 6 6 5 4 5 4 4 3 3 3 3 4 4 3 2 0 0 1 0 0 1 0 0 0 0 1 2 2 2 2 2 2 2 2 2 2 2 2 2
8 7 7 7 7 7 8 8 8 7 5 6 5 5 5 4 4 4 4 3 3 3 3 4 2 1 1 1 0 0 0 1 0 -0 0 0 1 1 2 2 2 2 2 2 2 2 2 2 2
7 10 8 8 7 8 7 10 9 6 6 6 6 6 5 4 4 4 3 3 2 2 2 4 4 2 1 1 1 0 0 1 1 1 0 1 1 2 2 2 2 2 2 2 2 2 3 3 3
10 10 14 9 8 7 8 13 8 6 7 7 6 7 6 6 4 3 3 2 2 2 3 3 3 3 2 1 1 1 1 1 1 1 1 1 1 1 2 2 2 2 2 2 3 3 3 3 3
13 16 14 11 8 9 9 13 8 6 6 8 8 7 7 7 6 3 3 2 2 2 3 3 3 3 4 2 2 2 2 3 2 2 1 1 1 1 1 1 2 2 2 3 3 3 3 3 3
16 15 13 13 10 9 10 10 8 8 7 7 7 7 8 7 6 5 3 2 2 2 3 4 3 3 3 3 2 3 3 3 3 2 1 1 1 1 1 2 2 2 2 2 3 3 3 3 3
11 13 13 12 9 11 12 11 9 8 8 8 8 8 8 7 6 5 5 2 2 2 3 5 5 3 3 4 4 3 2 3 3 2 1 1 1 1 1 2 2 2 2 2 2 3 3 3 3
12 13 13 11 10 10 11 12 10 10 9 9 8 8 8 7 7 5 5 4 2 2 2 4 4 4 3 3 3 3 3 1 2 2 2 1 1 1 1 1 1 2 2 3 2 2 3 3 3
12 13 13 13 11 10 12 12 11 10 10 8 8 8 7 7 6 6 5 5 3 2 2 2 3 4 3 3 3 4 4 5 2 2 2 2 1 1 1 1 1 1 1 1 2 2 2 3 3
15 10 11 12 14 16 12 17 14 13 11 10 9 9 8 8 7 6 5 5 4 2 2 1 2 3 3 3 3 3 4 4 4 1 1 1 1 1 0 0 0 1 0 1 1 2 2 2 3
12 9 11 12 14 15 14 17 16 12 13 11 10 9 8 7 7 6 6 5 4 2 2 2 1 2 3 3 3 3 4 3 3 4 3 1 1 1 1 0 0 0 0 0 1 1 2 2 2
9 11 12 12 13 18 14 16 16 14 13 11 10 9 8 7 7 6 6 6 5 4 2 2 2 2 2 3 3 3 3 3 4 4 4 3 1 1 1 1 1 0 0 0 0 1 1 1 1
10 13 21 20 19 19 15 16 15 13 11 10 9 9 8 8 8 8 7 6 6 6 5 2 2 2 2 2 3 3 3 3 3 3 4 4 3 2 1 1 1 1 0 0 0 1 1 1 2
12 13 17 23 21 19 15 18 14 10 9 8 8 7 8 8 8 7 7 7 7 6 6 4 3 3 2 2 3 3 2 2 2 3 3 4 3 3 2 2 2 1 0 0 0 0 1 1 1
13 15 11 16 18 20 17 14 11 10 10 9 9 9 8 9 9 9 9 8 7 7 6 5 4 3 3 2 2 2 2 2 2 2 2 2 3 2 3 3 2 2 2 1 1 1 2 1 2
11 10 16 15 21 23 18 18 15 13 11 9 10 10 10 10 11 10 9 8 8 9 8 8 7 5 2 2 2 2 2 2 2 1 2 2 2 2 2 3 3 2 2 2 3 2 1 2 3
13 14 14 14 16 20 21 17 12 11 10 10 10 10 11 10 10 10 10 9 9 9 8 8 8 8 7 5 2 2 1 1 1 1 1 1 1 2 2 2 3 2 2 2 2 3 2 3 3
10 12 12 16 18 16 17 16 10 10 10 9 9 10 9 10 10 10 10 10 9 9 8 9 8 8 8 7 6 5 1 1 1 1 1 1 2 1 2 1 2 2 2 2 2 2 3 2 3